Location: Britannia Beach
(45.3521°N, 62.9901°W)
Time: 11:12:31
(UTC+00:00)

X-37B - Pass Details

Date: 05 August 2021
Orbit: 381 x 393 km, 45.0° (Epoch: 29 August)

Event Time Altitude Azimuth Distance (km) Brightness Sun altitude
Exits shadow 07:29:35 32° 234° (SW) 685 1.2 -14.1°
Maximum altitude 07:30:48 60° 166° (SSE) 438 0.6 -14.0°
Drops below altitude 10° 07:33:55 10° 85° (E) 1,398 4.2 -13.6°
Sets 07:36:00 0° 82° (E) 2,253 5.5 -13.3°
